TimeCDT,TemperatureF,Dew PointF,Humidity,Sea Level PressureIn,VisibilityMPH,Wind Direction,Wind SpeedMPH,Gust SpeedMPH,PrecipitationIn,Events,Conditions,WindDirDegrees,DateUTC
12:58 AM,66.0,66.0,100,29.97,10.0,South,5.8,-,N/A,,Overcast,190,2013-10-16 05:58:00
1:08 AM,66.2,66.2,100,29.97,10.0,South,5.8,-,N/A,,Light Drizzle,190,2013-10-16 06:08:00
1:18 AM,66.2,66.2,100,29.97,10.0,SSW,5.8,-,N/A,,Overcast,210,2013-10-16 06:18:00
1:26 AM,66.2,66.2,100,29.97,10.0,SW,6.9,-,N/A,,Light Drizzle,220,2013-10-16 06:26:00
1:58 AM,65.5,65.5,100,29.97,10.0,South,6.9,-,0.00,,Light Drizzle,190,2013-10-16 06:58:00
2:40 AM,64.4,64.4,100,29.95,10.0,South,6.9,-,N/A,,Clear,190,2013-10-16 07:40:00
2:50 AM,64.4,64.4,100,29.96,10.0,SSW,6.9,-,N/A,,Mostly Cloudy,200,2013-10-16 07:50:00
2:53 AM,66.2,66.2,100,29.96,10.0,SSW,5.8,-,N/A,,Light Drizzle,200,2013-10-16 07:53:00
2:58 AM,65.3,65.3,100,29.96,10.0,South,6.9,-,0.01,,Light Drizzle,190,2013-10-16 07:58:00
3:17 AM,66.2,66.2,100,29.96,10.0,SSW,4.6,-,N/A,,Light Drizzle,210,2013-10-16 08:17:00
3:30 AM,64.4,64.4,100,29.96,10.0,SW,5.8,-,N/A,,Overcast,230,2013-10-16 08:30:00
3:53 AM,64.4,64.4,100,29.95,10.0,SSW,8.1,-,N/A,,Scattered Clouds,210,2013-10-16 08:53:00
3:58 AM,65.3,65.3,100,29.95,10.0,SSW,9.2,-,0.00,,Scattered Clouds,210,2013-10-16 08:58:00
4:15 AM,66.2,66.2,100,29.96,10.0,SW,6.9,-,N/A,,Mostly Cloudy,220,2013-10-16 09:15:00
4:17 AM,66.2,66.2,100,29.96,10.0,SW,5.8,-,N/A,,Mostly Cloudy,220,2013-10-16 09:17:00
4:29 AM,66.2,66.2,100,29.97,10.0,WSW,5.8,-,N/A,,Light Drizzle,240,2013-10-16 09:29:00
4:50 AM,66.2,66.2,100,29.95,10.0,SW,4.6,-,N/A,,Overcast,230,2013-10-16 09:50:00
4:58 AM,65.3,65.3,100,29.95,10.0,SSW,5.8,-,0.00,,Overcast,210,2013-10-16 09:58:00
5:08 AM,66.2,66.2,100,29.95,10.0,South,5.8,-,N/A,,Mostly Cloudy,190,2013-10-16 10:08:00
5:09 AM,66.2,66.2,100,29.95,10.0,South,5.8,-,N/A,,Mostly Cloudy,190,2013-10-16 10:09:00
5:12 AM,66.2,66.2,100,29.95,10.0,South,5.8,-,N/A,,Mostly Cloudy,190,2013-10-16 10:12:00
5:15 AM,66.2,66.2,100,29.95,10.0,SSW,5.8,-,N/A,,Mostly Cloudy,200,2013-10-16 10:15:00
5:16 AM,66.2,66.2,100,29.95,10.0,SSW,5.8,-,N/A,,Mostly Cloudy,200,2013-10-16 10:16:00
5:18 AM,66.2,66.2,100,29.95,10.0,SSW,5.8,-,N/A,,Mostly Cloudy,200,2013-10-16 10:18:00
5:51 AM,66.2,66.2,100,29.96,10.0,SSW,4.6,-,N/A,,Light Drizzle,200,2013-10-16 10:51:00
5:58 AM,65.5,65.5,100,29.96,10.0,South,4.6,-,0.01,,Light Drizzle,190,2013-10-16 10:58:00
6:08 AM,66.2,66.2,100,29.96,10.0,SSW,4.6,-,N/A,,Light Drizzle,210,2013-10-16 11:08:00
6:34 AM,66.2,66.2,100,29.97,10.0,SW,4.6,-,N/A,,Light Drizzle,220,2013-10-16 11:34:00
6:40 AM,66.2,66.2,100,29.97,10.0,SSW,4.6,-,N/A,,Light Drizzle,200,2013-10-16 11:40:00
6:41 AM,66.2,66.2,100,29.97,10.0,SSW,4.6,-,N/A,,Light Drizzle,200,2013-10-16 11:41:00
6:47 AM,66.2,66.2,100,29.97,10.0,South,4.6,-,N/A,,Light Drizzle,180,2013-10-16 11:47:00
6:49 AM,66.2,66.2,100,29.97,10.0,South,3.5,-,N/A,,Light Drizzle,180,2013-10-16 11:49:00
6:57 AM,66.2,66.2,100,29.96,10.0,South,4.6,-,N/A,Rain,Light Rain,190,2013-10-16 11:57:00
6:58 AM,65.5,65.5,100,29.96,10.0,South,3.5,-,0.01,Rain,Light Rain,180,2013-10-16 11:58:00
7:09 AM,66.2,66.2,100,29.97,10.0,South,4.6,-,N/A,,Light Drizzle,180,2013-10-16 12:09:00
7:22 AM,64.4,64.4,100,29.97,10.0,NW,10.4,-,N/A,,Light Drizzle,310,2013-10-16 12:22:00
7:25 AM,62.6,62.6,100,29.97,10.0,NW,10.4,-,N/A,,Heavy Drizzle,320,2013-10-16 12:25:00
7:33 AM,62.6,62.6,100,29.97,10.0,NNW,8.1,-,N/A,,Light Drizzle,340,2013-10-16 12:33:00
7:39 AM,60.8,60.8,100,29.98,10.0,NNW,9.2,-,N/A,,Light Drizzle,340,2013-10-16 12:39:00
7:41 AM,60.8,60.8,100,29.98,10.0,NNW,9.2,-,N/A,,Light Drizzle,340,2013-10-16 12:41:00
7:43 AM,60.8,60.8,100,29.98,10.0,NNW,8.1,-,N/A,,Light Drizzle,340,2013-10-16 12:43:00
7:47 AM,60.8,60.8,100,29.98,9.0,North,10.4,-,N/A,Rain,Rain,360,2013-10-16 12:47:00
7:52 AM,60.8,60.8,100,29.99,8.0,North,10.4,-,N/A,Rain,Rain,350,2013-10-16 12:52:00
7:58 AM,60.3,60.3,100,29.99,8.0,North,12.7,-,0.03,Rain,Rain,350,2013-10-16 12:58:00
8:02 AM,59.0,59.0,100,29.99,9.0,North,9.2,-,N/A,Rain,Rain,350,2013-10-16 13:02:00
8:07 AM,59.0,59.0,100,30.00,10.0,North,10.4,-,N/A,Rain,Rain,350,2013-10-16 13:07:00
8:08 AM,59.0,59.0,100,30.00,10.0,North,11.5,-,N/A,Rain,Rain,350,2013-10-16 13:08:00
8:12 AM,59.0,59.0,100,29.99,10.0,North,13.8,-,N/A,Rain,Rain,360,2013-10-16 13:12:00
8:51 AM,59.0,59.0,100,30.01,7.0,NNW,8.1,-,N/A,Rain,Rain,330,2013-10-16 13:51:00
8:53 AM,59.0,59.0,100,30.01,7.0,NW,9.2,-,N/A,Rain,Rain,320,2013-10-16 13:53:00
8:58 AM,58.1,58.1,100,30.01,7.0,NNW,10.4,-,0.07,Rain,Light Rain,330,2013-10-16 13:58:00
9:03 AM,57.2,57.2,100,30.01,10.0,NW,6.9,-,N/A,Rain,Light Rain,320,2013-10-16 14:03:00
9:05 AM,57.2,57.2,100,30.01,10.0,NNW,8.1,-,N/A,Rain,Light Rain,340,2013-10-16 14:05:00
9:07 AM,57.2,57.2,100,30.01,10.0,NNW,8.1,-,N/A,Rain,Light Rain,340,2013-10-16 14:07:00
9:09 AM,57.2,57.2,100,30.01,10.0,NNW,8.1,-,N/A,Rain,Light Rain,330,2013-10-16 14:09:00
9:14 AM,57.2,57.2,100,30.02,10.0,NNW,6.9,-,N/A,Rain,Light Rain,340,2013-10-16 14:14:00
9:58 AM,56.3,56.3,100,30.02,10.0,North,3.5,-,0.06,Rain,Light Rain,360,2013-10-16 14:58:00
10:39 AM,57.2,57.2,100,30.02,10.0,NNW,5.8,-,N/A,Rain,Light Rain,340,2013-10-16 15:39:00
10:51 AM,57.2,57.2,100,30.02,10.0,Variable,5.8,-,N/A,,Light Drizzle,0,2013-10-16 15:51:00
10:58 AM,56.8,56.8,100,30.02,10.0,North,5.8,-,0.04,,Drizzle,10,2013-10-16 15:58:00
11:01 AM,57.2,57.2,100,30.02,10.0,North,4.6,-,N/A,Rain,Light Rain,360,2013-10-16 16:01:00
11:02 AM,57.2,57.2,100,30.02,10.0,North,4.6,-,N/A,Rain,Light Rain,350,2013-10-16 16:02:00
11:11 AM,57.2,57.2,100,30.02,7.0,NNW,5.8,-,N/A,Rain,Rain,330,2013-10-16 16:11:00
11:21 AM,55.4,55.4,100,30.03,8.0,North,3.5,-,N/A,Rain,Light Rain,350,2013-10-16 16:21:00
11:25 AM,55.4,55.4,100,30.02,7.0,NNW,5.8,-,N/A,Rain,Light Rain,330,2013-10-16 16:25:00
11:58 AM,55.8,55.8,100,30.01,8.0,NE,2.3,-,0.04,Rain,Light Rain,40,2013-10-16 16:58:00
12:05 PM,55.4,55.4,100,30.01,5.0,North,3.5,-,N/A,Rain,Light Rain,10,2013-10-16 17:05:00
12:14 PM,57.2,57.2,100,30.01,9.0,NNW,4.6,-,N/A,,Light Drizzle,340,2013-10-16 17:14:00
12:39 PM,57.2,57.2,100,30.00,10.0,NNE,4.6,-,N/A,,Light Drizzle,20,2013-10-16 17:39:00
12:41 PM,57.2,57.2,100,30.00,10.0,North,4.6,-,N/A,,Overcast,360,2013-10-16 17:41:00
12:48 PM,57.2,57.2,100,30.00,10.0,NNE,4.6,-,N/A,,Overcast,20,2013-10-16 17:48:00
12:58 PM,57.4,57.4,100,29.99,10.0,NNE,3.5,-,0.01,,Overcast,20,2013-10-16 17:58:00
1:05 PM,57.2,57.2,100,30.00,10.0,NNW,3.5,-,N/A,,Overcast,340,2013-10-16 18:05:00
1:23 PM,57.2,57.2,100,29.97,10.0,NNE,4.6,-,N/A,,Overcast,20,2013-10-16 18:23:00
1:28 PM,57.2,57.2,100,29.98,10.0,Variable,2.3,-,N/A,,Light Drizzle,0,2013-10-16 18:28:00
1:30 PM,59.0,59.0,100,29.98,10.0,NW,3.5,-,N/A,,Light Drizzle,310,2013-10-16 18:30:00
1:56 PM,57.2,57.2,100,29.97,10.0,NNW,4.6,-,N/A,,Overcast,330,2013-10-16 18:56:00
1:58 PM,57.7,57.7,100,29.98,10.0,NNW,3.5,-,0.00,,Overcast,330,2013-10-16 18:58:00
2:36 PM,57.2,57.2,100,29.97,10.0,North,4.6,-,N/A,,Overcast,350,2013-10-16 19:36:00
2:51 PM,57.2,57.2,100,29.97,10.0,NW,4.6,-,N/A,,Overcast,320,2013-10-16 19:51:00
2:52 PM,57.2,57.2,100,29.97,10.0,NW,4.6,-,N/A,,Overcast,320,2013-10-16 19:52:00
2:56 PM,57.2,57.2,100,29.97,10.0,North,4.6,-,N/A,,Overcast,350,2013-10-16 19:56:00
2:58 PM,57.7,57.7,100,29.97,10.0,NNW,5.8,-,N/A,,Overcast,340,2013-10-16 19:58:00
3:58 PM,58.3,58.3,100,29.97,10.0,NNW,4.6,-,N/A,,Overcast,340,2013-10-16 20:58:00
4:58 PM,58.6,57.7,97,29.97,10.0,North,4.6,-,N/A,,Overcast,360,2013-10-16 21:58:00
5:58 PM,58.6,58.1,98,29.97,10.0,North,3.5,-,N/A,,Overcast,350,2013-10-16 22:58:00
6:38 PM,57.2,57.2,100,29.97,10.0,NNE,2.3,-,N/A,,Overcast,30,2013-10-16 23:38:00
6:58 PM,57.7,57.7,100,29.97,10.0,NNE,2.3,-,N/A,,Overcast,30,2013-10-16 23:58:00
7:32 PM,57.2,57.2,100,29.97,10.0,NNW,2.3,-,N/A,,Mostly Cloudy,330,2013-10-17 00:32:00
7:58 PM,56.5,56.5,100,29.98,10.0,NNW,3.5,-,N/A,,Partly Cloudy,340,2013-10-17 00:58:00
8:58 PM,54.9,54.9,100,29.99,10.0,NNE,2.3,-,N/A,,Mostly Cloudy,20,2013-10-17 01:58:00
9:57 PM,57.2,57.2,100,29.98,10.0,North,2.3,-,N/A,,Overcast,360,2013-10-17 02:57:00
10:58 PM,56.7,56.7,100,29.97,10.0,Calm,Calm,-,N/A,,Overcast,0,2013-10-17 03:58:00
11:58 PM,55.0,55.0,100,29.96,10.0,NW,4.6,-,N/A,,Partly Cloudy,320,2013-10-17 04:58:00